Погода в Торопеце

Погода в Торопеце : погода сейчас, прогноз погоды и архив. Всё, что Вы хотите узнать о погоде в Торопеце!

Поиск расширенной информации на нашем сайте:

Другие новости

Новости СМИ2

Главная страница сайта

Новости сайта

03.07.2017

Напоминаем, что на нашем специализированном сайте Метеоцентр.Азия вы можете получить высокодетализированные автоматические прогнозы погоды по пунктам России, СНГ и мира в авиационном формате (включающие направление и скорость ветра, видимость, явления погоды, количество и форму облачности, нижнюю и верхнюю границу облачности).


Погода в Торопеце - сегодня

Время (UTC), дата Ветер
(°,м/с) 
Видим.   Явления Облачность Т
(°С)
Тd
(°С)
f(%) Тe
(°С)
Pmin
(гПа)
dP
(гПа)
Po
(мм)
O2
(г/м3)
Тmin Tmax R s Состояние
почвы
03 19.04.18 320 (СЗ) 5{12}  20000 м    10/10 600 м кучево-дожд. 
[Cb cap]
+5.2 +4 92 +3  1013.4  -0.2  743  293  +5.2       
06 19.04.18 330 (СЗ) 4{12}  20000 м    10/10 600 м кучево-дожд. 
[Cb cap]
+5.4 +4.1 91 +4  1014  0.6  743  293  +5.1      влажная 
09 19.04.18 340 (С) 4000 м  слаб. ливневой дождь  10/10 600 м кучево-дожд. 
[Cb cap]
+5.8 +5 95 +6  1015.1  1.1  744  293           
15 19.04.18 350 (С) 20000 м    3/0 верхняя 
[Ci fib]
+13.2 +1.8 46 +13  1015.6  0.4  745  286      0.0     
21 19.04.18 320 (СЗ) 20000 м    ясно 
+7.8 +3.2 73 +8  1018.7  1.3  747  292           
00 20.04.18 320 (СЗ) 20000 м    ясно 
+5.9 +3.4 84 +5  1019.7  0.8  748  294           
03 20.04.18 320 (СЗ) 20000 м    6/0 средняя 
[Ac trans]
+4.7 +2.3 84 +4  1020.4  0.6  748  296  +4.6         
09 20.04.18 320 (СЗ) 20000 м    8/5 600 м верхняя 
[Cu med, cong|Ci fib]
+13.4 +1.2 43 +13  1019.6  -0.4  748  287           
12 20.04.18 300 (СЗ) 20000 м    8/3 600 м верхняя 
[Cu hum|Ci sp]
+15.8 -0.5 33 +16  1017.8  -1.6  747  284           
15 20.04.18 290 (З) 20000 м    9/8 600 м верхняя 
[Sc|Ci fib]
+16.1 +1.2 36 +16  1015.2  -2.5  745  283           
21 20.04.18 240 (ЮЗ) 20000 м    9/9 600 м 
[Sc]
+12 +2.8 53 +12  1010.1  -3.1  741  286           
00 21.04.18 240 (ЮЗ) 20000 м    8/5 600 м верхняя 
[Sc|Ci fib]
+11.4 +6.5 72 +11  1007.4  -2.7  739  285           
03 21.04.18 230 (ЮЗ) 20000 м    9/6 600 м верхняя 
[Sc|Ci sp]
+10.8 +7.5 80 +10  1003.2  -4.1  736  284  +10.8         
06 21.04.18 230 (ЮЗ) 4{10}  20000 м    3/0 верхняя 
[Ci sp]
+14.3 +7 61 +14  997.8  -5  732  279  +10.7        влажная 
18 21.04.18 300 (СЗ) 6-10{24}  20000 м  {ливн. осадки}  3/3 600 м 
[Sc]
+8.1 +2.1 66 +6  1000.7  2.4  734  287    +19.3  0.5     
03 22.04.18 300 (СЗ) 3{12}  4000 м  слаб. ливневой дождь  9/9 600 м кучево-дожд. 
[Cb cap]
+4.7 +3.2 90 +4  1002.3  735  290  +4.7       
06 22.04.18 340 (С) 3{12}  4000 м  слаб. ливневой дождь  10/10 600 м кучево-дожд. 
[Cb cap]
+4 +2.9 93 +3  1003.8  1.4  736  292  +3.7      влажная 
09 22.04.18 330 (СЗ) 20000 м  {ливн. осадки}  10/10 600 м кучево-дожд. 
[Cb cap]
+4.8 +2.4 84 +3  1005.8  737  292           
21 22.04.18 360 (С) 20000 м    4/4 600 м 
[Sc]
+0.5 -3 77 +1  1014.3  1.4  743  299           
00 23.04.18 330 (СЗ) 20000 м    3/3 600 м 
[Sc]
-1.1 -3.3 85 -1  1015.8  1.4  744  301           
09 23.04.18 300 (СЗ) 20000 м    8/0 верхняя 
[Ci sp]
+6.4 -7.2 37 +7  1017.1  -0.3  746  294           
12 23.04.18 030 (СВ) 20000 м    3/0 верхняя 
[Ci fib]
+8.8 -8.1 29 +10  1015.5  -1.3  745  291           
15 23.04.18 320 (СЗ) 20000 м    ясно 
+8.8 -9.2 27 +9  1014.6  -0.9  744  291           
21 23.04.18 тихо ()   20000 м    3/0 верхняя 
[Ci fib]
-1.1 -3.1 86 -1  1014.3  -0.7  743  301           
00 24.04.18 070 (В) 10 км    4/0 верхняя 
[Ci sp]
-2.7 -3.4 95 -2  1013.9  -0.5  743  303           
Время (UTC), дата Ветер
(°,м/с) 
Видим.   Явления Облачность Т
(°С)
Тd
(°С)
f(%) Тe
(°С)
Pmin
(гПа)
dP
(гПа)
Po
(мм)
O2
(г/м3)
Тmin Tmax R s Состояние
почвы

Для получения пояснительной информации подведите курсор к названию столбца.

ПОГОДА в Торопеце - архив

Всё, что Вы хотите узнать о погоде в Торопеце - удобно и подробно!

Выберите нужную дату (начиная с 1 января 2015* года) и нажмите кнопку "Найти".
Будут отображены архивные сводки погоды по пункту Торопец, начиная с указанной даты.


Отображать данные в формате CSV (для использования в таблицах Excel)


Внимание! Наш архив погоды предназначен исключительно для личного некоммерческого использования в познавательных целях. Если Вам необходимы официальные справки о состоянии погоды (для производственных, юридических, коммерческих и т.п. целей), обращайтесь в органы Росгидромета.

*Примечание: данная дата относится к архиву по метеостанциям СССР (Россия, СНГ, Балтия).
Архив по метеостанциям Зарубежной Европы и Азии (кроме Китая) хранится 10 дней, по другим регионам земного шара (Китай, Африка, Америка, Австралия, Океания) - 1 день.

Торопец - район местоположения метеостанции


Название, широта, долгота, высота метеостанции:
Торопец 56.5°ш. 31.6°д. 187 м над ур. моря [Российская Федерация]

Дополнительная информация

В oтличие oт бoльшинства пoгoдных сайтoв мы публикуем пoдрoбную метеoинфoрмацию в детальнoм прoфессиoнальнoм фoрмате.

Характеристики температуры и влажнoсти вoздуха измеряются на высoте 2 м в тени вдали oт зданий и деревьев.
Скoрoсть ветра измеряется на высoте 10 м (на урoвне рoста челoвека скoрoсть ветра ниже в 1.5-2 раза). Если метеoстанция нахoдится в гoрoде или в лесу, тo скoрoсть ветра занижена на 2-4 м/с пo сравнению с oткрытым местoм. Скoрoсть ветра над акватoриями крупных рек и oзёр, а также на вершинах хoлмoв на 2-5 м/с выше, чем в oбычных услoвиях.
Атмoсфернoе давление в разных тoчках местнoсти мoжет значительнo oтличаться oт давления на метеoстанции, в зависимoсти oт услoвий рельефа (при пoдъёме на 10 м давление пoнижается примернo на 1 мм рт.ст.).